CZ-4C R/B

Last updated on Mon Oct 27 2025 00:02:05 GMT+0000 (Coordinated Universal Time)

1 65816U 25219B 25299.47250728 .00000868 00000+0 20416-3 0 9994 2 65816 98.6371 241.6376 0120333 311.8709 47.2266 14.52856917 4315

Satellite not in orbit

CZ-4C R/B